Temp
-5 -5 -7 -7 -8 -8 -9 -10 -11 -11 -12 -12 -13 -13 -13 -13 -13 -12 -12 -12 -11 -10 -10 -10 -10 -11 -10 -10 -10 -10 -9 -9 -10 -9 -9 -5 -4 -4 -4 -3 -2 -2 -1
-4 -5 -6 -7 -7 -9 -10 -11 -12 -13 -14 -14 -14 -15 -15 -15 -14 -14 -13 -13 -12 -11 -11 -11 -11 -12 -11 -11 -10 -10 -10 -9 -9 -10 -9 -6 -5 -5 -4 -3 -3 -2 -2
-5 -5 -6 -7 -9 -10 -11 -12 -14 -14 -15 -15 -15 -15 -15 -15 -15 -15 -14 -14 -13 -12 -11 -11 -11 -12 -12 -12 -11 -11 -10 -10 -9 -10 -10 -7 -6 -5 -5 -4 -3 -3 -2
-5 -6 -7 -9 -9 -10 -12 -13 -14 -15 -15 -16 -16 -16 -16 -16 -15 -15 -15 -14 -14 -13 -12 -11 -11 -11 -11 -12 -12 -11 -10 -10 -9 -10 -10 -8 -7 -6 -6 -5 -4 -3 -3
-5 -7 -8 -9 -10 -11 -12 -13 -13 -14 -15 -15 -15 -16 -16 -16 -16 -15 -15 -14 -14 -14 -13 -12 -12 -11 -11 -11 -12 -11 -10 -10 -10 -10 -11 -10 -8 -7 -6 -6 -5 -4 -3
-6 -7 -9 -10 -11 -11 -12 -13 -14 -14 -15 -15 -15 -16 -16 -16 -15 -15 -15 -14 -14 -14 -13 -13 -12 -11 -11 -10 -11 -11 -11 -10 -10 -10 -11 -10 -8 -8 -7 -6 -8 -5 -3
-6 -7 -9 -10 -11 -12 -12 -13 -13 -14 -14 -15 -15 -15 -16 -16 -15 -15 -14 -14 -14 -14 -14 -13 -12 -11 -11 -10 -10 -11 -11 -11 -10 -11 -11 -10 -9 -8 -8 -6 -6 -5 -4
-6 -7 -9 -10 -11 -12 -13 -13 -14 -14 -14 -14 -15 -15 -16 -16 -15 -15 -14 -15 -15 -14 -14 -13 -12 -12 -10 -10 -10 -10 -11 -11 -10 -10 -11 -11 -10 -8 -8 -7 -6 -5 -5
-6 -7 -8 -10 -11 -12 -13 -13 -14 -14 -14 -14 -15 -15 -15 -15 -16 -15 -15 -15 -15 -14 -14 -13 -12 -11 -10 -10 -9 -10 -11 -11 -11 -11 -11 -11 -9 -8 -8 -7 -6 -5 -5
-7 -7 -8 -9 -11 -12 -13 -13 -14 -14 -14 -14 -15 -15 -15 -15 -15 -15 -15 -15 -15 -14 -13 -13 -12 -11 -10 -10 -10 -10 -11 -11 -11 -11 -9 -8 -8 -9 -7 -7 -6 -5 -5
-6 -6 -7 -9 -10 -11 -12 -13 -14 -14 -14 -15 -15 -15 -15 -15 -15 -15 -15 -15 -14 -14 -13 -12 -11 -11 -10 -10 -10 -11 -11 -11 -10 -10 -9 -9 -9 -8 -7 -6 -6 -4 -3
-6 -6 -7 -8 -9 -11 -11 -12 -13 -13 -14 -14 -14 -14 -14 -14 -14 -14 -14 -14 -13 -13 -13 -12 -12 -11 -10 -11 -11 -11 -11 -11 -11 -10 -9 -9 -9 -8 -8 -7 -5 -4 -3
-6 -6 -6 -7 -8 -10 -11 -11 -12 -13 -13 -13 -13 -13 -13 -13 -14 -13 -13 -13 -13 -13 -13 -12 -12 -12 -11 -11 -11 -11 -11 -11 -11 -10 -10 -9 -7 -7 -7 -5 -5 -4 -3
-6 -6 -6 -7 -8 -9 -10 -11 -11 -12 -12 -12 -13 -13 -13 -13 -13 -13 -12 -12 -13 -13 -12 -12 -11 -11 -11 -11 -12 -12 -11 -11 -10 -9 -9 -8 -8 -7 -6 -5 -4 -4 -3
-6 -6 -6 -6 -7 -8 -9 -10 -10 -11 -12 -12 -12 -13 -12 -12 -12 -12 -12 -12 -12 -12 -12 -12 -11 -11 -11 -12 -12 -12 -11 -10 -9 -9 -8 -8 -8 -7 -8 -6 -5 -4 -3
-5 -6 -6 -7 -6 -7 -8 -9 -10 -11 -11 -12 -12 -12 -12 -12 -12 -12 -12 -12 -12 -12 -12 -11 -11 -11 -11 -11 -11 -11 -10 -9 -9 -9 -8 -8 -8 -7 -7 -6 -4 -4 -4
-5 -6 -6 -7 -8 -7 -7 -8 -9 -10 -10 -11 -11 -12 -12 -12 -12 -12 -11 -11 -12 -12 -12 -11 -11 -11 -11 -11 -10 -10 -9 -9 -8 -8 -8 -8 -7 -7 -6 -6 -5 -4 -5
-5 -5 -6 -6 -7 -7 -7 -7 -8 -9 -10 -10 -10 -10 -11 -11 -11 -12 -11 -11 -11 -11 -11 -11 -11 -11 -11 -10 -10 -9 -9 -8 -8 -8 -7 -7 -6 -6 -6 -7 -5 -5 -5
-5 -5 -6 -6 -6 -7 -6 -7 -7 -8 -9 -9 -9 -9 -9 -10 -10 -10 -10 -10 -10 -10 -10 -10 -10 -10 -9 -9 -9 -8 -8 -8 -7 -8 -7 -6 -5 -6 -5 -6 -6 -5 -5
-5 -6 -6 -6 -6 -6 -6 -7 -7 -8 -8 -9 -9 -9 -9 -9 -9 -8 -8 -9 -9 -9 -9 -9 -9 -9 -8 -8 -8 -8 -8 -8 -8 -8 -7 -7 -6 -6 -6 -6 -6 -6 -4
-6 -6 -6 -6 -6 -6 -6 -6 -7 -7 -7 -8 -8 -8 -8 -8 -8 -7 -7 -7 -7 -7 -7 -7 -7 -7 -7 -7 -7 -8 -8 -8 -8 -8 -7 -7 -7 -6 -6 -6 -5 -4 -4
-6 -6 -6 -6 -6 -6 -6 -6 -6 -6 -6 -6 -7 -7 -7 -7 -7 -6 -7 -6 -6 -6 -6 -6 -6 -6 -6 -7 -7 -7 -7 -7 -7 -7 -6 -6 -6 -6 -5 -5 -4 -4 -3
-7 -7 -7 -6 -6 -6 -6 -6 -7 -6 -6 -6 -6 -6 -6 -6 -6 -5 -6 -6 -6 -6 -6 -6 -6 -6 -6 -6 -6 -6 -6 -7 -6 -6 -6 -6 -6 -5 -5 -5 -4 -4 -3
-7 -7 -7 -7 -6 -6 -7 -6 -6 -6 -6 -6 -6 -6 -6 -6 -5 -5 -5 -5 -5 -5 -5 -5 -5 -5 -6 -6 -6 -6 -5 -6 -6 -6 -5 -5 -5 -5 -5 -4 -4 -4 -4
-6 -6 -6 -6 -7 -7 -7 -7 -6 -6 -6 -6 -5 -6 -6 -7 -6 -6 -5 -5 -4 -4 -5 -4 -4 -5 -6 -6 -6 -5 -5 -5 -5 -5 -4 -4 -4 -5 -5 -4 -4 -3 -3
-7 -7 -6 -6 -6 -6 -6 -7 -6 -7 -7 -6 -6 -6 -6 -6 -6 -6 -5 -5 -4 -4 -4 -4 -4 -4 -5 -5 -5 -5 -5 -5 -5 -5 -4 -4 -4 -4 -3 -3 -3 -3 -3
Height
3036 3028 3020 3013 3004 2993 2983 2975 2966 2959 2953 2949 2945 2942 2940 2939 2939 2939 2941 2943 2946 2951 2956 2962 2970 2977 2986 2993 2998 3003 3010 3018 3026 3032 3033 3035 3040 3044 3047 3051 3056 3063 3067
3029 3021 3013 3004 2994 2983 2973 2964 2956 2949 2944 2940 2936 2933 2931 2928 2928 2928 2929 2932 2936 2939 2944 2951 2958 2966 2973 2983 2989 2994 3002 3011 3018 3025 3027 3031 3035 3039 3042 3046 3051 3056 3062
3024 3016 3006 2997 2986 2975 2964 2955 2947 2941 2936 2933 2928 2925 2922 2919 2918 2918 2919 2922 2925 2930 2935 2940 2948 2956 2963 2972 2980 2986 2994 3003 3011 3020 3025 3026 3031 3035 3038 3042 3046 3051 3057
3021 3011 3001 2991 2979 2968 2957 2949 2942 2936 2932 2928 2924 2920 2916 2913 2910 2910 2910 2913 2916 2920 2926 2931 2938 2945 2953 2962 2971 2979 2987 2997 3005 3012 3019 3022 3026 3031 3035 3038 3042 3047 3052
3018 3008 2997 2986 2975 2963 2954 2946 2939 2934 2929 2924 2920 2915 2911 2907 2905 2904 2904 2906 2908 2912 2918 2924 2930 2937 2945 2953 2964 2973 2981 2990 2999 3007 3015 3019 3022 3027 3031 3036 3039 3044 3049
3015 3005 2994 2983 2972 2962 2952 2944 2937 2931 2926 2920 2915 2910 2906 2903 2900 2899 2899 2900 2903 2906 2911 2917 2924 2931 2939 2947 2957 2965 2975 2986 2995 3003 3011 3015 3019 3024 3028 3032 3037 3040 3046
3013 3003 2992 2982 2971 2961 2951 2943 2936 2929 2923 2917 2912 2907 2903 2900 2897 2894 2894 2896 2898 2902 2907 2912 2919 2927 2935 2943 2951 2960 2970 2981 2991 3000 3007 3011 3015 3020 3025 3029 3032 3037 3043
3012 3002 2992 2982 2971 2961 2952 2943 2935 2929 2923 2917 2911 2906 2902 2899 2896 2893 2892 2894 2896 2900 2904 2910 2916 2924 2933 2940 2947 2957 2967 2977 2986 2994 3001 3008 3012 3019 3024 3027 3031 3035 3040
3012 3002 2991 2981 2971 2962 2953 2944 2936 2929 2923 2917 2911 2907 2903 2900 2897 2895 2894 2895 2897 2900 2904 2909 2915 2923 2931 2939 2946 2955 2964 2975 2982 2988 2994 3000 3008 3015 3021 3024 3028 3032 3037
3013 3002 2992 2982 2972 2962 2954 2945 2937 2929 2924 2918 2912 2907 2903 2901 2899 2898 2897 2898 2899 2901 2905 2910 2916 2923 2931 2939 2946 2955 2964 2973 2980 2987 2993 3000 3006 3011 3016 3022 3025 3030 3034
3013 3003 2994 2984 2974 2964 2955 2947 2939 2931 2925 2919 2914 2909 2905 2903 2901 2900 2900 2900 2902 2905 2908 2913 2919 2925 2932 2940 2949 2958 2967 2974 2980 2987 2994 2999 3006 3011 3015 3019 3023 3027 3032
3016 3005 2996 2987 2977 2967 2958 2949 2942 2934 2927 2921 2916 2911 2907 2905 2904 2903 2903 2904 2906 2910 2914 2918 2924 2929 2936 2944 2953 2961 2968 2974 2980 2986 2992 2998 3004 3007 3014 3017 3021 3025 3029
3019 3009 2999 2990 2981 2972 2962 2953 2945 2937 2931 2925 2920 2916 2913 2910 2908 2908 2908 2911 2914 2917 2920 2926 2932 2937 2944 2951 2958 2963 2968 2974 2979 2986 2992 2996 3002 3007 3010 3014 3018 3022 3027
3021 3013 3003 2994 2986 2977 2968 2959 2950 2942 2936 2930 2926 2921 2918 2917 2915 2915 2915 2917 2921 2925 2929 2934 2940 2946 2952 2956 2960 2965 2971 2975 2980 2986 2991 2997 3001 3005 3009 3013 3017 3021 3026
3024 3016 3007 2998 2990 2982 2974 2965 2957 2950 2943 2937 2933 2929 2926 2924 2922 2922 2922 2925 2928 2932 2937 2942 2946 2952 2956 2960 2964 2968 2972 2977 2982 2987 2992 2997 3001 3004 3008 3011 3015 3020 3025
3027 3019 3012 3004 2995 2987 2980 2972 2965 2958 2952 2947 2941 2938 2934 2931 2930 2930 2930 2933 2936 2939 2944 2949 2952 2957 2961 2965 2968 2971 2975 2979 2984 2989 2994 2998 3001 3004 3007 3011 3015 3019 3024
3031 3023 3016 3009 3001 2994 2986 2980 2972 2966 2962 2956 2951 2947 2943 2940 2938 2937 2937 2940 2943 2946 2950 2954 2958 2961 2964 2968 2971 2974 2977 2982 2986 2991 2995 2998 3000 3003 3007 3010 3014 3019 3024
3034 3027 3020 3013 3007 3000 2992 2986 2980 2974 2970 2965 2961 2957 2953 2950 2948 2947 2946 2946 2948 2952 2955 2959 2962 2965 2967 2970 2973 2976 2979 2983 2987 2991 2994 2997 2999 3002 3006 3010 3014 3019 3024
3038 3032 3025 3018 3012 3006 2999 2993 2987 2983 2978 2974 2971 2967 2964 2960 2958 2957 2956 2956 2957 2958 2960 2962 2965 2967 2970 2972 2975 2978 2981 2985 2988 2991 2993 2996 2998 3002 3006 3010 3014 3018 3023
3040 3035 3029 3023 3018 3012 3006 3001 2996 2991 2987 2983 2981 2978 2974 2972 2970 2968 2967 2966 2966 2966 2967 2968 2969 2971 2973 2975 2977 2980 2984 2987 2989 2992 2994 2996 2999 3001 3005 3009 3013 3017 3023
3043 3038 3033 3028 3023 3018 3014 3009 3004 3000 2997 2992 2990 2987 2985 2983 2981 2979 2978 2977 2975 2974 2974 2974 2974 2975 2977 2978 2981 2984 2987 2989 2990 2992 2994 2997 3000 3004 3008 3010 3013 3017 3022
3047 3041 3036 3032 3028 3023 3019 3015 3011 3008 3004 3000 2997 2995 2992 2990 2988 2987 2985 2983 2981 2980 2979 2979 2979 2979 2980 2982 2984 2985 2988 2988 2990 2993 2996 2998 3002 3005 3007 3010 3014 3017 3022
3051 3046 3041 3036 3031 3027 3024 3020 3015 3012 3009 3006 3003 3000 2997 2995 2993 2991 2989 2987 2986 2985 2984 2983 2982 2981 2982 2982 2984 2985 2987 2990 2992 2995 2997 3000 3002 3005 3008 3010 3014 3017 3021
3055 3050 3045 3041 3037 3031 3027 3024 3020 3017 3013 3010 3008 3005 3002 2999 2996 2993 2991 2989 2988 2987 2985 2984 2984 2983 2983 2984 2984 2985 2986 2990 2993 2995 2997 2999 3002 3005 3008 3011 3014 3017 3020
3059 3055 3051 3045 3040 3036 3033 3028 3025 3021 3018 3015 3011 3008 3004 3001 2998 2995 2991 2988 2987 2986 2986 2985 2984 2985 2984 2984 2984 2984 2987 2990 2992 2994 2996 2998 3000 3002 3006 3009 3012 3015 3018
3062 3058 3054 3050 3046 3041 3037 3033 3029 3026 3022 3019 3015 3012 3009 3006 3001 2996 2994 2991 2990 2988 2987 2986 2985 2985 2986 2986 2987 2988 2990 2992 2993 2995 2994 2997 2999 3000 3004 3007 3010 3013 3015
Wind_Speed
38 37 38 39 43 48 46 42 39 36 35 33 33 32 33 32 31 32 34 35 38 44 48 48 48 43 34 29 29 34 38 37 26 21 23 26 24 25 28 28 33 36 36
38 38 38 41 44 47 44 40 37 33 29 27 26 27 28 30 28 28 29 30 32 36 40 44 46 44 40 35 34 34 35 36 35 24 24 26 23 24 26 28 33 34 36
39 39 39 42 46 44 42 36 31 28 24 21 23 22 22 24 25 26 27 29 29 30 34 40 42 44 44 39 35 32 42 38 36 24 22 26 23 24 25 25 28 34 35
39 38 39 43 43 42 36 30 26 23 19 18 19 19 19 18 17 19 21 25 28 29 31 34 37 41 44 44 37 34 36 37 35 32 22 25 24 23 22 23 26 31 33
39 37 40 41 40 38 32 29 25 20 19 20 20 20 19 16 14 14 17 18 21 24 30 31 34 36 36 40 40 35 41 37 35 32 24 22 24 22 23 20 23 27 31
39 37 39 39 38 36 31 28 24 21 21 23 21 19 15 14 13 13 14 15 17 22 27 28 31 32 31 33 41 37 36 42 38 30 25 23 25 22 24 23 21 26 27
39 38 38 37 36 35 32 28 26 24 22 20 18 14 13 11 11 10 11 12 15 18 22 26 29 30 29 31 37 37 40 41 36 27 25 23 26 27 23 23 24 24 24
40 38 38 35 34 33 32 28 24 25 23 20 17 13 12 10 9 4 4 9 12 15 18 23 26 27 29 30 32 35 44 42 39 34 26 24 27 21 24 22 21 24 22
41 40 38 37 34 33 30 30 25 23 22 20 17 15 11 8 7 6 4 7 12 13 17 21 23 26 28 29 30 33 41 41 37 37 30 30 33 26 24 21 19 23 25
42 41 38 37 35 31 29 30 28 22 20 21 19 14 11 8 3 3 6 7 9 13 17 20 22 25 28 29 29 33 43 39 34 36 32 28 31 29 27 22 19 21 23
43 40 37 35 35 32 29 28 27 24 21 20 18 15 11 8 6 3 5 9 12 16 18 20 23 26 29 28 29 36 36 34 30 30 28 28 24 20 25 22 19 21 24
46 39 37 34 34 34 31 27 25 25 23 22 17 14 12 10 9 9 9 12 19 22 21 23 25 27 28 32 34 31 28 27 27 31 28 22 21 23 17 15 20 20 23
40 40 38 36 33 32 33 30 25 24 23 22 20 17 14 13 13 13 15 19 25 23 23 33 31 31 32 33 27 25 23 20 29 29 20 22 23 20 20 19 19 20 22
34 42 38 37 33 31 31 33 31 26 23 23 21 19 19 16 15 15 18 26 26 24 32 33 32 29 24 23 22 21 19 20 27 26 24 23 20 17 16 17 20 21 22
34 37 42 39 35 33 31 32 34 32 27 26 25 24 21 19 18 17 20 25 27 28 30 33 28 23 20 22 18 18 19 25 26 27 24 20 18 19 19 18 20 21 22
35 31 35 43 37 35 31 29 31 32 31 27 26 26 23 19 18 17 17 23 26 27 28 27 25 22 18 17 15 16 19 23 25 26 22 18 18 19 18 17 20 23 25
32 35 29 36 39 38 32 28 28 31 32 30 27 25 26 25 22 20 19 18 21 24 25 24 20 18 16 12 14 16 18 21 22 23 19 16 15 19 18 19 24 25 29
29 32 34 28 35 38 33 28 28 28 29 29 29 28 27 27 26 24 21 18 18 20 21 22 18 16 15 16 16 16 20 21 21 19 17 15 16 20 20 21 19 26 28
26 28 31 31 31 31 32 30 28 27 29 31 30 29 29 29 28 27 26 24 20 19 21 21 19 18 18 18 18 21 22 20 18 15 14 17 21 21 24 26 22 29 27
23 25 26 29 27 33 28 30 29 29 28 30 30 30 31 31 30 29 27 24 20 18 16 15 15 16 17 18 22 23 20 18 15 12 14 17 20 22 24 27 23 29 28
25 22 23 24 26 24 31 32 29 26 27 26 27 28 28 27 27 27 27 27 23 18 14 10 9 10 12 16 20 20 17 14 12 13 15 17 19 22 16 20 26 32 33
30 30 21 22 22 23 21 20 19 26 22 19 20 21 20 18 19 20 17 16 15 15 18 12 9 8 9 12 15 15 14 9 13 13 12 15 24 18 16 18 33 34 28
26 29 31 26 21 22 22 23 27 22 18 18 15 16 17 19 19 16 11 10 12 11 9 9 10 9 7 5 9 12 12 17 17 15 11 13 24 20 21 19 31 26 24
29 27 27 29 31 26 21 22 22 22 29 26 17 16 14 16 16 15 15 12 5 4 6 4 1 3 4 2 1 10 19 22 17 17 12 15 12 24 22 24 26 22 21
25 26 27 26 27 27 29 30 21 20 20 19 19 25 30 27 21 21 20 11 3 2 1 3 3 3 2 4 2 11 21 19 18 20 19 11 9 15 29 26 23 23 22
23 22 23 24 26 27 27 26 26 28 25 20 19 18 19 22 26 23 22 18 14 10 5 4 5 3 6 8 6 13 18 14 11 17 14 11 10 15 30 23 19 22 22
Wind_Direction
333 328 326 320 315 316 318 316 310 305 300 294 289 283 280 275 269 261 257 252 244 239 238 236 235 237 225 221 227 224 216 215 214 219 223 225 227 222 224 219 219 217 217
341 338 331 326 324 325 324 321 317 311 303 294 291 287 280 279 274 264 252 248 244 240 238 236 234 232 229 219 227 215 208 212 217 217 229 222 222 221 222 217 215 213 216
346 341 337 334 333 331 328 326 321 318 313 308 305 301 291 282 274 265 255 243 236 236 236 233 230 226 228 224 220 220 214 211 218 215 217 215 217 219 220 218 215 214 214
347 344 343 342 341 340 339 335 329 328 328 326 318 312 310 297 281 265 253 241 232 231 231 231 226 222 221 222 218 214 209 202 200 215 207 213 210 216 217 217 216 214 215
349 348 349 350 350 350 349 349 344 339 333 329 324 319 311 303 288 268 250 240 233 229 225 224 221 218 218 215 210 210 205 200 213 213 204 207 205 210 213 211 215 211 214
354 353 352 354 356 358 357 356 352 341 334 331 326 323 317 308 295 273 250 237 230 225 220 216 214 211 208 206 206 200 203 198 203 206 201 204 202 203 210 212 204 209 211
359 358 356 358 358 2 2 1 358 354 350 344 339 337 332 330 320 288 247 226 220 214 210 208 206 202 197 197 198 200 199 197 203 198 200 202 201 201 207 209 208 204 202
4 0 0 359 2 4 4 3 1 3 358 360 0 356 351 349 348 339 208 201 202 199 200 200 198 193 191 192 190 195 198 194 202 201 191 199 195 208 203 213 212 201 197
8 5 2 2 3 3 5 6 6 5 7 7 4 4 1 357 17 56 103 171 175 185 188 189 188 185 184 187 186 190 191 189 199 198 187 196 187 191 192 206 206 201 203
9 9 4 4 3 3 2 4 7 12 15 14 15 11 13 13 8 57 102 127 160 169 171 173 174 173 176 180 181 186 181 189 199 199 199 194 191 200 202 202 206 204 204
10 9 8 6 8 8 6 6 10 14 14 12 14 18 24 34 40 85 123 140 146 149 150 156 158 163 168 170 175 176 182 190 198 199 197 193 194 206 207 203 206 207 205
14 10 12 10 10 14 15 12 13 19 21 21 22 30 39 53 68 92 112 130 133 133 134 147 147 150 157 160 158 172 184 196 196 194 192 187 191 203 197 208 208 207 203
12 12 15 15 14 14 20 21 19 23 28 31 37 41 52 69 79 96 113 128 130 127 131 135 134 137 143 154 167 180 185 182 188 186 182 185 191 193 199 201 201 201 195
14 17 19 20 19 20 24 27 29 32 38 43 45 53 60 66 81 98 120 132 129 130 138 139 139 146 152 163 169 174 173 179 180 178 176 177 182 190 187 189 193 190 193
16 15 19 22 22 24 26 32 35 35 42 49 50 52 56 66 78 96 122 140 137 138 143 146 148 150 151 161 168 170 174 176 173 171 172 174 179 174 169 193 185 188 189
17 13 13 21 25 26 25 32 40 41 42 48 54 57 58 65 78 88 110 141 147 147 150 154 155 153 146 141 155 164 171 171 172 174 173 179 187 188 188 187 182 182 184
18 20 17 19 23 24 28 31 44 46 44 47 53 61 64 71 81 88 106 127 153 156 156 160 161 158 156 162 165 162 167 170 175 179 181 185 190 194 187 181 181 186 189
17 21 22 22 20 19 28 37 40 51 49 47 51 60 67 74 80 82 90 114 140 155 160 162 160 166 174 166 160 159 163 167 170 179 187 192 195 193 182 169 179 185 185
18 22 24 24 26 19 30 38 45 47 57 56 56 59 60 65 71 77 84 91 105 131 149 157 160 159 157 158 159 160 163 167 171 177 193 199 188 180 180 177 187 178 175
19 22 25 25 32 28 36 41 47 53 59 64 61 60 63 65 66 68 70 76 83 97 120 139 150 157 162 165 165 165 167 167 175 187 185 180 177 177 182 184 184 181 179
18 22 23 28 32 34 38 40 40 46 52 65 68 71 66 60 54 52 55 58 67 78 86 102 127 150 165 172 171 173 177 186 197 190 190 185 177 167 168 183 177 175 176
26 26 23 23 28 33 31 21 24 38 43 51 61 63 59 53 42 38 37 34 37 42 63 84 102 125 153 170 181 189 193 205 180 177 198 190 178 190 191 196 179 179 177
21 23 26 26 20 22 27 31 37 39 28 31 33 33 20 12 14 35 44 60 72 66 40 39 59 91 105 164 202 208 195 167 161 149 154 177 194 193 191 188 186 192 188
31 26 20 23 26 24 22 22 24 30 33 35 26 20 16 8 6 0 357 355 8 4 7 1 140 93 81 65 167 198 179 172 174 177 171 176 180 199 190 180 191 204 208
27 30 31 25 21 25 24 24 25 19 23 28 21 19 27 24 19 25 28 22 359 14 304 346 229 252 217 162 78 177 176 180 184 183 178 183 203 212 195 188 195 208 206
19 19 22 27 29 27 24 21 22 24 21 17 14 16 16 12 13 19 34 37 53 56 77 93 138 83 154 134 157 157 173 185 198 188 219 203 203 212 195 202 209 197 203